User: anonymous   Login
Location: Banksville Park
(38.5557°N, 75.1182°W)
Time: 12:23:55
(UTC+00:00)
Language:

ARIANE 5 R/B - Orbit

View from above orbital plane
View from above orbital plane
View from above satellite
View from above satellite

Ground track
Ground track

The orbit data is extracted from the following two-line orbital elements,

1 27387U 02009B   21135.91265251 -.00000015  00000-0  10466-4 0  9999
2 27387  98.6578  96.0429 0031714 214.2509 145.6632 14.36017747  6554
Epoch (UTC): 15 May 2021 21:54:13
Eccentricity: 0.0031714
inclination: 98.6578°
perigee height: 749 km
apogee height: 794 km
right ascension of ascending node: 96.0429°
argument of perigee: 214.2509°
revolutions per day: 14.36017747
mean anomaly at epoch: 145.6632°
orbit number at epoch: 655

The dashed part of the orbit path shows where the satellite is in the earth's shadow,  

DLR